When you browse on this site, cookies collect data to enhance your experience and personalize the content and advertising you see.
Visit our Privacy Policy to learn more. By continuing to use the site, you agree to this use of cookies and data.
  • In Hungary
  • List of Countries
  • For 7 days
  • Water Temperature
  • Satellite Maps
  • Weather Map
  • News
  • Weather Widgets
  • user-avatar
    Login

    Hourly Weather Mystkow

    Today, 10 December, Monday

    Time Temperature Precipitation Wind Pressure Humidity
    00:00 +1°C° 0.3 mm 3 mps 708 mmHg 88%
    01:00 +2°C° 0 mm 2 mps 708 mmHg 89%
    02:00 +2°C° 0.3 mm 2 mps 708 mmHg 89%
    03:00 +2°C° 0.3 mm 2 mps 708 mmHg 89%
    04:00 +1°C° 0.3 mm 3 mps 708 mmHg 90%
    05:00 +1°C° 0.2 mm 3 mps 709 mmHg 89%
    06:00 +1°C° 0.2 mm 3 mps 709 mmHg 88%
    07:00 0°C° 0 mm 3 mps 709 mmHg 87%
    08:00 0°C° 0.2 mm 4 mps 710 mmHg 85%
    09:00 0°C° 0.2 mm 4 mps 710 mmHg 82%
    10:00 0°C° 0.2 mm 5 mps 711 mmHg 80%
    11:00 0°C° 0.2 mm 5 mps 711 mmHg 79%
    12:00 0°C° 0.2 mm 5 mps 712 mmHg 77%
    13:00 0°C° 0.2 mm 5 mps 712 mmHg 76%
    14:00 0°C° 0.1 mm 4 mps 712 mmHg 78%
    15:00 0°C° 0.1 mm 3 mps 713 mmHg 81%
    16:00 0°C° 0.1 mm 3 mps 713 mmHg 83%
    17:00 -1°C° 0.1 mm 3 mps 713 mmHg 84%
    18:00 -1°C° 0.1 mm 3 mps 713 mmHg 85%
    19:00 -1°C° 0.1 mm 3 mps 713 mmHg 86%
    20:00 -1°C° 0.1 mm 3 mps 714 mmHg 87%
    21:00 -1°C° 0.1 mm 3 mps 714 mmHg 87%
    22:00 -1°C° 0.1 mm 3 mps 714 mmHg 88%
    23:00 -2°C° 0.1 mm 2 mps 714 mmHg 88%

    Tomorrow, 11 December, Tuesday

    Time Temperature Precipitation Wind Pressure Humidity
    00:00 -2°C° 0.1 mm 2 mps 714 mmHg 89%
    01:00 -2°C° 0.1 mm 2 mps 714 mmHg 90%
    02:00 -3°C° 0 mm 2 mps 714 mmHg 90%
    03:00 -3°C° 0 mm 2 mps 714 mmHg 90%
    04:00 -3°C° 0 mm 2 mps 714 mmHg 90%
    05:00 -3°C° 0 mm 2 mps 714 mmHg 90%
    06:00 -3°C° 0 mm 2 mps 714 mmHg 89%
    07:00 -3°C° 0 mm 2 mps 714 mmHg 89%
    08:00 -3°C° 0 mm 2 mps 714 mmHg 86%
    09:00 -2°C° 0 mm 2 mps 714 mmHg 82%
    10:00 -1°C° 0 mm 2 mps 715 mmHg 79%
    11:00 +1°C° 0 mm 2 mps 714 mmHg 78%
    12:00 +1°C° 0 mm 2 mps 714 mmHg 77%
    13:00 +2°C° 0 mm 2 mps 714 mmHg 76%
    14:00 +1°C° 0.1 mm 2 mps 714 mmHg 80%
    15:00 -1°C° 0.1 mm 2 mps 714 mmHg 84%
    16:00 -2°C° 0.1 mm 2 mps 714 mmHg 88%
    17:00 -2°C° 0.1 mm 2 mps 714 mmHg 89%
    18:00 -2°C° 0.1 mm 2 mps 714 mmHg 90%
    19:00 -2°C° 0.1 mm 2 mps 714 mmHg 92%
    20:00 -2°C° 0.1 mm 2 mps 714 mmHg 92%
    21:00 -2°C° 0.1 mm 2 mps 714 mmHg 93%
    22:00 0°C° 0.1 mm 1 mps 715 mmHg 93%
    23:00 0°C° 0.2 mm 1 mps 715 mmHg 93%

    Day after tomorrow, 12 December, Wednesday

    Time Temperature Precipitation Wind Pressure Humidity
    00:00 0°C° 0.2 mm 1 mps 715 mmHg 93%
    01:00 0°C° 0.2 mm 1 mps 715 mmHg 94%
    02:00 0°C° 0.2 mm 1 mps 715 mmHg 94%
    03:00 0°C° 0.2 mm 1 mps 715 mmHg 93%
    04:00 0°C° 0.2 mm 1 mps 715 mmHg 93%
    05:00 -1°C° 0.1 mm 1 mps 716 mmHg 93%
    06:00 -1°C° 0.1 mm 1 mps 716 mmHg 92%
    07:00 -2°C° 0.1 mm 0 mps 716 mmHg 92%
    08:00 -2°C° 0 mm 0 mps 717 mmHg 89%
    09:00 -1°C° 0 mm 0 mps 717 mmHg 87%
    10:00 0°C° 0 mm 0 mps 717 mmHg 84%
    11:00 +1°C° 0 mm 1 mps 717 mmHg 83%
    12:00 +1°C° 0 mm 1 mps 717 mmHg 82%
    13:00 +2°C° 0 mm 1 mps 717 mmHg 81%
    14:00 +1°C° 0.1 mm 1 mps 718 mmHg 84%
    15:00 0°C° 0.1 mm 1 mps 718 mmHg 88%
    16:00 0°C° 0.1 mm 1 mps 718 mmHg 91%
    17:00 -1°C° 0 mm 1 mps 718 mmHg 92%
    18:00 -1°C° 0 mm 1 mps 718 mmHg 94%
    19:00 -2°C° 0 mm 1 mps 718 mmHg 95%
    20:00 -2°C° 0 mm 1 mps 718 mmHg 94%
    21:00 -2°C° 0 mm 1 mps 719 mmHg 94%
    22:00 -4°C° 0 mm 2 mps 719 mmHg 93%
    23:00 -4°C° 0 mm 2 mps 719 mmHg 93%

    13 December, Thursday

    Time Temperature Precipitation Wind Pressure Humidity
    00:00 -4°C° 0 mm 2 mps 719 mmHg 92%
    01:00 -4°C° 0 mm 2 mps 719 mmHg 92%
    02:00 -4°C° 0 mm 2 mps 718 mmHg 91%
    03:00 -5°C° 0 mm 3 mps 718 mmHg 91%
    04:00 -5°C° 0 mm 3 mps 718 mmHg 91%
    05:00 -5°C° 0.1 mm 3 mps 718 mmHg 91%
    06:00 -5°C° 0.1 mm 3 mps 718 mmHg 90%
    07:00 -5°C° 0.1 mm 3 mps 718 mmHg 90%
    08:00 -5°C° 0.2 mm 3 mps 718 mmHg 88%
    09:00 -5°C° 0.2 mm 3 mps 717 mmHg 86%
    10:00 -4°C° 0.2 mm 3 mps 717 mmHg 85%
    11:00 -4°C° 0.2 mm 3 mps 717 mmHg 84%
    12:00 -4°C° 0.2 mm 3 mps 717 mmHg 83%
    13:00 -2°C° 0.2 mm 3 mps 717 mmHg 83%
    14:00 -4°C° 0.2 mm 3 mps 717 mmHg 85%
    15:00 -3°C° 0.2 mm 2 mps 717 mmHg 88%
    16:00 -3°C° 0.2 mm 2 mps 717 mmHg 90%
    17:00 -3°C° 0.1 mm 2 mps 717 mmHg 91%
    18:00 -3°C° 0.1 mm 2 mps 718 mmHg 91%
    19:00 -4°C° 0.1 mm 2 mps 718 mmHg 92%
    20:00 -4°C° 0.1 mm 2 mps 718 mmHg 92%
    21:00 -2°C° 0.1 mm 1 mps 719 mmHg 92%
    22:00 -2°C° 0.1 mm 1 mps 719 mmHg 92%
    23:00 -2°C° 0.1 mm 1 mps 719 mmHg 92%

    14 December, Friday

    Time Temperature Precipitation Wind Pressure Humidity
    00:00 -2°C° 0.1 mm 1 mps 719 mmHg 93%
    01:00 -2°C° 0.1 mm 1 mps 720 mmHg 93%
    02:00 -2°C° 0 mm 1 mps 720 mmHg 93%
    03:00 -2°C° 0 mm 1 mps 720 mmHg 94%
    04:00 -3°C° 0 mm 1 mps 720 mmHg 94%
    05:00 -3°C° 0 mm 1 mps 721 mmHg 93%
    06:00 -3°C° 0 mm 1 mps 721 mmHg 93%
    07:00 -4°C° 0 mm 0 mps 722 mmHg 93%
    08:00 -3°C° 0 mm 0 mps 722 mmHg 90%
    09:00 -2°C° 0 mm 0 mps 723 mmHg 88%
    10:00 -2°C° 0 mm 0 mps 723 mmHg 85%
    11:00 -1°C° 0 mm 0 mps 724 mmHg 83%
    12:00 -1°C° 0 mm 0 mps 724 mmHg 82%
    13:00 0°C° 0 mm 0 mps 724 mmHg 80%
    14:00 -1°C° 0 mm 0 mps 724 mmHg 84%
    15:00 -2°C° 0 mm 0 mps 725 mmHg 88%
    16:00 -3°C° 0 mm 0 mps 725 mmHg 92%
    17:00 -3°C° 0 mm 0 mps 725 mmHg 92%
    18:00 -3°C° 0 mm 0 mps 726 mmHg 92%
    19:00 -4°C° 0 mm 0 mps 726 mmHg 93%
    20:00 -4°C° 0 mm 0 mps 726 mmHg 92%
    21:00 -4°C° 0 mm 0 mps 726 mmHg 92%
    22:00 -4°C° 0 mm 0 mps 727 mmHg 92%
    23:00 -4°C° 0 mm 0 mps 727 mmHg 92%

    15 December, Saturday

    Time Temperature Precipitation Wind Pressure Humidity
    00:00 -5°C° 0 mm 0 mps 727 mmHg 92%
    01:00 -5°C° 0 mm 0 mps 727 mmHg 91%
    02:00 -5°C° 0 mm 0 mps 727 mmHg 91%
    03:00 -5°C° 0 mm 0 mps 727 mmHg 91%
    04:00 -5°C° 0 mm 0 mps 728 mmHg 91%
    05:00 -5°C° 0 mm 0 mps 728 mmHg 91%
    06:00 -5°C° 0 mm 0 mps 728 mmHg 91%
    07:00 -5°C° 0 mm 0 mps 728 mmHg 91%
    08:00 -4°C° 0 mm 0 mps 729 mmHg 89%
    09:00 -3°C° 0 mm 0 mps 729 mmHg 88%
    10:00 -2°C° 0 mm 0 mps 730 mmHg 86%
    11:00 -1°C° 0 mm 1 mps 730 mmHg 84%
    12:00 0°C° 0 mm 1 mps 729 mmHg 83%
    13:00 0°C° 0 mm 1 mps 729 mmHg 82%
    14:00 -1°C° 0 mm 1 mps 729 mmHg 85%
    15:00 -1°C° 0 mm 1 mps 729 mmHg 88%
    16:00 -2°C° 0 mm 1 mps 730 mmHg 91%
    17:00 -2°C° 0 mm 1 mps 730 mmHg 91%
    18:00 -3°C° 0 mm 1 mps 730 mmHg 92%
    19:00 -3°C° 0 mm 1 mps 730 mmHg 92%
    20:00 -3°C° 0 mm 1 mps 730 mmHg 92%
    21:00 -3°C° 0 mm 1 mps 730 mmHg 92%
    22:00 -3°C° 0 mm 1 mps 730 mmHg 92%
    23:00 -4°C° 0 mm 1 mps 730 mmHg 93%
    Show more